Weather in Verkhniy Kugener

Russia / Mari El Republic     56°53′30″N   49°12′09″E
temp.,
°C
wind,
m/s
gust,
m/s
humid.,
%
clouds,
%
prec.,
mm/h
press.,
hPa
HPBL,
m
26 february, fri
fri2600:00−20se599694 0.0 1019300
03:00−21se489794 0.1 1019242
06:00−22se499898 0.0 1018194
09:00−21se599692 0.0 1018294
12:00−17sse61093100 0.0 1016485
15:00−15se71292100 0.1 1014560
18:00−15se91591100 0.1 1009616
21:00−14se101694100 1.4 1004621
27 february, sat
sat2700:00−14se91594100 4.5 1001693
03:00−14ese81394100 6.7 1000575
06:00−14ese71294100 0.9 998496
09:00−13e71194100 1.9 999507
12:00−11ene61093100 0.8 1000592
15:00−11ene6993100 1.4 1002612
18:00−13ne51094100 0.4 1003412
21:00−13nne599596 0.5 1005324
28 february, sun
sun2800:00−16nne489699 0.1 1006216
03:00−20n479992 0.1 1009136
06:00−22nne469866 0.0 1010125
09:00−20nne469658 0.0 1011235
12:00−17n469265 0.0 1012352
15:00−16n479079 0.0 1013502
18:00−20n349778 0.0 101549
21:00−21n349849 0.0 101839
1 march, mon
mon100:00−22n3310055 0.0 101923
03:00−22n239952 0.0 102120
06:00−23nnw23990 0.0 102220
09:00−20nw12960 0.0 102365
12:00−16w23892 0.0 1022233
15:00−14wsw359216 0.0 1021280
18:00−16sw46956 0.0 101995
21:00−14sw6119353 0.0 1016282
2 march, tue
tue200:00−13sw61194100 0.1 1012314
03:00−10sw61194100 1.1 1008409
06:00−9sw61195100 0.8 1005349
09:00−5wsw5895100 1.6 1004319
12:000wnw579286 0.1 1003645
15:00−1nw588893 0.2 1001701
18:00−3w3695100 0.0 1001125
21:00−4wnw499799 0.1 1002220